Location: Leiter
(44.7178°N, 106.2687°W)
Time: 21:08:56
(UTC+00:00)

EO-79 - Visible Passes

Search period start: 28 June 2022 00:00
Search period end: 08 July 2022 00:00
Orbit: 587 x 605 km, 98.0° (Epoch: 28 June)

Date Brightness Start Highest point End Pass type
(mag) Time Alt. Az. Time Alt. Az. Time Alt. Az.
28 Jun ? 08:33:02 10° NNE 08:37:11 52° E 08:38:41 34° SSE visible
28 Jun ? 10:09:46 10° NNW 10:12:23 16° WNW 10:15:00 10° W visible
29 Jun ? 08:42:53 10° NNE 08:47:07 68° ESE 08:48:42 36° S visible
29 Jun ? 10:20:13 10° NNW 10:22:12 13° WNW 10:24:11 10° W visible
30 Jun ? 08:52:47 10° NNE 08:57:02 87° ESE 08:58:43 36° SSW visible
30 Jun ? 10:31:06 10° NW 10:31:59 11° WNW 10:32:51 10° WNW visible
01 Jul ? 07:29:53 10° ENE 07:30:49 11° E 07:31:46 10° ESE visible
01 Jul ? 09:02:43 10° N 09:06:56 74° WNW 09:08:43 34° SSW visible
02 Jul ? 07:38:40 10° ENE 07:40:51 14° E 07:42:03 12° ESE visible
02 Jul ? 09:12:40 10° N 09:16:50 57° WNW 09:18:43 30° SW visible
03 Jul ? 07:48:01 10° NE 07:50:52 17° E 07:52:03 16° ESE visible
03 Jul ? 09:22:39 10° N 09:26:42 45° WNW 09:28:43 25° SW visible
04 Jul ? 07:57:33 10° NE 08:00:51 22° E 08:02:03 19° ESE visible
04 Jul ? 09:32:41 10° N 09:36:33 36° WNW 09:38:43 21° WSW visible
05 Jul ? 08:07:11 10° NE 08:10:49 27° E 08:12:02 24° SE visible
05 Jul ? 09:42:45 10° N 09:46:24 29° WNW 09:48:42 18° WSW visible
06 Jul ? 08:16:53 10° NNE 08:20:47 34° E 08:22:01 28° SE visible
06 Jul ? 09:52:51 10° NNW 09:56:13 23° WNW 09:58:41 14° WSW visible
07 Jul ? 08:26:39 10° NNE 08:30:43 44° E 08:32:00 34° SE visible
07 Jul ? 10:03:02 10° NNW 10:06:02 19° WNW 10:08:40 11° WSW visible
